Date String (YYYY-MM-DD hh:mm:ss) UTC,Instrument flags,Ambient pressure (hPa),Sample flow (lpm),Bypass flow (lpm),Sample temperature (°C),Ambient temperature (°C),ASC tube jacket temperature (°C),LED temperature (°C),Box temperature (°C),Sample RH (%),Span deviation,Mass concentration (μg/m³),Mass concentration (μg/m³),Mass concentration (μg/m³)
DateTimeUTC,F1_M11,P_M11,Q1_M11,Q2_M11,T1_M11,T2_M11,T3_M11,T4_M11,T5_M11,U1_M11,ZSPAN_M11,X0_M11,X2_M11,X1_M11
2022-07-13 15:00:00,,0829.5,5.00,0.00,29.9,28.7,00.0,38.6,31.8,25.4,0000.0,0016.95,0006.35,0005.21
2022-07-13 15:01:00,,0829.5,4.99,0.00,29.9,28.8,00.0,38.7,31.9,25.3,0000.0,0017.09,0006.29,0005.21
2022-07-13 15:02:00,,0829.5,5.01,0.00,29.9,28.5,00.0,38.6,31.9,25.4,0000.0,0017.14,0006.35,0005.24
2022-07-13 15:03:00,,0829.5,4.99,0.00,29.9,27.8,00.0,38.6,31.7,24.9,0000.0,0016.50,0006.43,0005.26
2022-07-13 15:04:00,,0829.5,5.00,0.00,29.9,27.5,00.0,38.5,31.6,26.2,0000.0,0016.05,0006.46,0005.26
2022-07-13 15:05:00,,0829.5,5.01,0.00,29.8,27.5,00.0,38.5,31.5,26.6,0000.0,0016.69,0006.50,0005.27
2022-07-13 15:06:00,,0829.5,5.00,0.00,29.8,27.6,00.0,38.5,31.5,26.9,0000.0,0017.56,0006.52,0005.27
2022-07-13 15:07:00,,0829.5,5.00,0.00,29.7,27.8,00.0,38.5,31.5,26.8,0000.0,0018.37,0006.56,0005.27
2022-07-13 15:08:00,,0829.5,5.00,0.00,29.7,27.9,00.0,38.5,31.5,26.6,0000.0,0017.55,0006.54,0005.28
2022-07-13 15:09:00,,0829.5,5.01,0.00,29.7,28.1,00.0,38.5,31.6,26.7,0000.0,0019.44,0006.50,0005.26
2022-07-13 15:10:00,,0829.5,5.00,0.00,29.8,28.2,00.0,38.5,31.6,27.6,0000.0,0019.79,0006.54,0005.25
2022-07-13 15:11:00,,0829.5,5.00,0.00,29.8,28.4,00.0,38.6,31.6,26.8,0000.0,0020.15,0006.55,0005.23
2022-07-13 15:12:00,,0829.5,5.00,0.00,29.8,28.5,00.0,38.6,31.7,26.4,0000.0,0020.46,0006.57,0005.21
2022-07-13 15:13:00,,0829.5,5.00,0.00,29.8,28.6,00.0,38.6,31.7,26.7,0000.0,0020.89,0006.50,0005.18
2022-07-13 15:14:00,,0829.5,5.00,0.00,29.8,28.7,00.0,38.6,31.7,26.2,0000.0,0021.33,0006.42,0005.15
2022-07-13 15:15:00,,0829.5,5.01,0.00,29.9,28.3,00.0,38.5,31.7,26.3,0000.0,0021.18,0006.40,0005.15
2022-07-13 15:16:00,,0829.4,4.99,0.00,29.8,27.6,00.0,38.5,31.6,26.7,0000.0,0020.37,0006.39,0005.16
2022-07-13 15:17:00,,0829.5,5.01,0.00,29.8,27.5,00.0,38.5,31.5,26.4,0000.0,0019.77,0006.40,0005.16
2022-07-13 15:18:00,,0829.4,5.00,0.00,29.7,27.5,00.0,38.5,31.5,26.9,0000.0,0020.43,0006.41,0005.15
2022-07-13 15:19:00,,0829.4,5.00,0.00,29.7,27.6,00.0,38.5,31.4,27.5,0000.0,0021.33,0006.40,0005.13
2022-07-13 15:20:00,,0829.4,4.99,0.00,29.7,27.8,00.0,38.5,31.5,28.1,0000.0,0018.99,0006.46,0005.13
2022-07-13 15:21:00,,0829.3,5.01,0.00,29.7,27.9,00.0,38.5,31.5,27.6,0000.0,0018.53,0006.46,0005.14
2022-07-13 15:22:00,,0829.4,5.00,0.00,29.7,28.1,00.0,38.5,31.5,28.0,0000.0,0017.97,0006.51,0005.15
2022-07-13 15:23:00,,0829.4,5.01,0.00,29.7,28.2,00.0,38.5,31.6,28.4,0000.0,0017.56,0006.56,0005.15
2022-07-13 15:24:00,,0829.4,4.99,0.00,29.7,28.4,00.0,38.5,31.6,27.4,0000.0,0016.93,0006.61,0005.17
2022-07-13 15:25:00,,0829.5,5.00,0.00,29.8,28.5,00.0,38.5,31.6,27.4,0000.0,0016.51,0006.65,0005.19
2022-07-13 15:26:00,,0829.4,5.01,0.00,29.8,28.6,00.0,38.5,31.7,28.3,0000.0,0016.58,0006.60,0005.19
2022-07-13 15:27:00,,0829.4,5.00,0.00,29.8,28.6,00.0,38.5,31.7,28.1,0000.0,0016.55,0006.58,0005.19
2022-07-13 15:28:00,,0829.4,4.99,0.00,29.8,28.1,00.0,38.5,31.7,28.6,0000.0,0016.30,0006.58,0005.19
2022-07-13 15:29:00,,0829.4,5.01,0.00,29.8,27.5,00.0,38.4,31.5,28.8,0000.0,0015.09,0006.51,0005.17
2022-07-13 15:30:00,,0829.5,5.00,0.00,29.7,27.4,00.0,38.4,31.5,28.0,0000.0,0013.54,0006.46,0005.17
2022-07-13 15:31:00,,0829.4,5.00,0.00,29.7,27.5,00.0,38.4,31.4,28.3,0000.0,0012.88,0006.48,0005.18
2022-07-13 15:32:00,,0829.4,5.00,0.00,29.6,27.6,00.0,38.4,31.4,28.4,0000.0,0013.42,0006.44,0005.18
2022-07-13 15:33:00,,0829.5,4.99,0.00,29.6,27.8,00.0,38.4,31.4,28.4,0000.0,0014.19,0006.44,0005.17
2022-07-13 15:34:00,,0829.5,4.99,0.00,29.6,27.9,00.0,38.4,31.4,27.9,0000.0,0014.86,0006.38,0005.17
2022-07-13 15:35:00,,0829.6,5.01,0.00,29.6,28.1,00.0,38.4,31.5,27.1,0000.0,0015.28,0006.38,0005.17
2022-07-13 15:36:00,,0829.5,5.00,0.00,29.7,28.2,00.0,38.4,31.6,26.3,0000.0,0015.59,0006.39,0005.16
2022-07-13 15:37:00,,0829.4,4.99,0.00,29.7,28.4,00.0,38.5,31.6,28.0,0000.0,0015.48,0006.40,0005.15
2022-07-13 15:38:00,,0829.4,5.02,0.00,29.7,28.5,00.0,38.5,31.7,29.2,0000.0,0016.49,0006.41,0005.15
2022-07-13 15:39:00,,0829.4,5.00,0.00,29.8,28.5,00.0,38.5,31.7,28.9,0000.0,0017.03,0006.40,0005.15
2022-07-13 15:40:00,,0829.5,5.00,0.00,29.7,27.8,00.0,38.4,31.6,28.4,0000.0,0017.32,0006.48,0005.20
2022-07-13 15:41:00,,0829.3,5.00,0.00,29.7,27.3,00.0,38.4,31.5,28.2,0000.0,0018.23,0006.58,0005.25
2022-07-13 15:42:00,,0829.3,4.99,0.00,29.6,27.3,00.0,38.4,31.4,28.5,0000.0,0018.35,0006.62,0005.28
2022-07-13 15:43:00,,0829.3,5.00,0.00,29.6,27.4,00.0,38.3,31.3,29.1,0000.0,0018.28,0006.65,0005.34
2022-07-13 15:44:00,,0829.5,5.00,0.00,29.6,27.6,00.0,38.3,31.3,28.6,0000.0,0017.51,0006.64,0005.38
2022-07-13 15:45:00,,0829.3,4.98,0.00,29.6,27.8,00.0,38.4,31.4,28.4,0000.0,0017.06,0006.75,0005.42
2022-07-13 15:46:00,,0829.3,5.00,0.00,29.6,27.9,00.0,38.4,31.4,28.2,0000.0,0016.99,0006.80,0005.46
2022-07-13 15:47:00,,0829.4,5.01,0.00,29.6,28.1,00.0,38.4,31.5,25.9,0000.0,0017.42,0006.83,0005.50
2022-07-13 15:48:00,,0829.4,5.00,0.00,29.6,28.2,00.0,38.4,31.5,27.3,0000.0,0017.53,0006.90,0005.55
2022-07-13 15:49:00,,0829.4,5.00,0.00,29.6,28.4,00.0,38.4,31.6,27.3,0000.0,0017.26,0006.96,0005.59
2022-07-13 15:50:00,,0829.4,5.00,0.00,29.7,28.4,00.0,38.4,31.6,26.9,0000.0,0016.99,0006.96,0005.63
2022-07-13 15:51:00,,0829.3,4.98,0.00,29.7,27.8,00.0,38.4,31.5,27.4,0000.0,0017.39,0006.95,0005.64
2022-07-13 15:52:00,,0829.3,5.00,0.00,29.6,27.3,00.0,38.3,31.4,28.1,0000.0,0017.12,0006.98,0005.65
2022-07-13 15:53:00,,0829.4,5.01,0.00,29.6,27.2,00.0,38.3,31.3,28.7,0000.0,0017.18,0006.90,0005.66
2022-07-13 15:54:00,,0829.5,5.00,0.00,29.5,27.3,00.0,38.3,31.3,29.5,0000.0,0017.53,0006.91,0005.65
2022-07-13 15:55:00,,0829.5,5.00,0.00,29.5,27.5,00.0,38.3,31.3,29.2,0000.0,0017.95,0006.95,0005.66
2022-07-13 15:56:00,,0829.5,4.99,0.00,29.5,27.6,00.0,38.3,31.3,28.9,0000.0,0018.09,0006.94,0005.67
2022-07-13 15:57:00,,0829.5,5.01,0.00,29.5,27.8,00.0,38.3,31.3,30.1,0000.0,0017.79,0006.93,0005.68
2022-07-13 15:58:00,,0829.5,5.00,0.00,29.5,28.0,00.0,38.3,31.4,29.7,0000.0,0017.93,0006.96,0005.68
2022-07-13 15:59:00,,0829.5,5.01,0.00,29.6,28.2,00.0,38.3,31.5,28.5,0000.0,0018.28,0006.97,0005.69
